Flag for U.S.A. Weather past 2 weeks in Lubbock, Texas, U.S.A.

Now
61 °F

Clear.


Feels Like: 61 °F
Forecast: 54 / 84 °F
Wind: No wind

Location: Lubbock International Airport

Current Time: Oct 25, 2014 at 1:04:01 AM

Latest Report: Oct 24, 2014 at 11:53 PM


Visibility: 10 mi

Pressure: 30.05 "Hg

Humidity: 70%

Dew point: 51 °F

Location of LubbockLocation

Historic Weather in Lubbock — Graph

°F

Lubbock temperature yesterday

Maximum temperature yesterday: 85 °F (at 3:53 PM)
Minimum temperature yesterday: 50 °F (at 6:53 AM)
Average temperature yesterday: 67 °F

Past Weeks' High & Low Weather Summary

 TemperatureHumidityPressure
High91 °F (Oct 16, 4:53 PM)97% (Oct 23, 8:53 AM)30.20 "Hg (Oct 23, 8:53 AM)
Low38 °F (Oct 14, 7:53 AM)14% (Oct 16, 4:53 PM)29.49 "Hg (Oct 12, 4:53 PM)
Average61 °F65%29.98 "Hg
* Reported Oct 9 11:53 PM — Oct 24 11:53 PM, Lubbock, Weather by CustomWeather, © 2014

Note: Actual official high and low records may vary slightly from our data, if they occured in-between our weather recording intervals... More about our weather records

Advertising

Lubbock weather history for previous 24 hours

 ConditionsComfort  
Time TempWeatherWind HumidityBarometerVisibility
11:53 PM
Oct 24
61 °FClear.No wind70%30.05 "Hg10 mi
10:53 PM65 °FClear.6 mph61%30.04 "Hg10 mi
9:53 PM64 °FClear.9 mph63%30.04 "Hg10 mi
8:53 PM68 °FClear.8 mph55%30.04 "Hg10 mi
7:53 PM73 °FSunny.9 mph46%30.02 "Hg10 mi
6:53 PM76 °FPassing clouds.7 mph40%30.01 "Hg10 mi
5:53 PM83 °FSunny.14 mph30%29.99 "Hg10 mi
4:53 PM85 °FPassing clouds.13 mph28%29.98 "Hg10 mi
3:53 PM85 °FPassing clouds.13 mph30%29.98 "Hg10 mi
2:53 PM84 °FPassing clouds.15 mph35%29.99 "Hg10 mi
1:53 PM83 °FPassing clouds.15 mph40%30.02 "Hg10 mi
12:53 PM80 °FSunny.14 mph47%30.05 "Hg10 mi
11:53 AM77 °FPassing clouds.13 mph52%30.07 "Hg10 mi
10:53 AM71 °FSunny.12 mph66%30.08 "Hg10 mi
9:53 AM63 °FSunny.9 mph81%30.09 "Hg10 mi
8:53 AM56 °FClear.3 mph93%30.08 "Hg7 mi
7:53 AM52 °FClear.3 mph89%30.07 "Hg10 mi
6:53 AM50 °FClear.5 mph93%30.06 "Hg7 mi
5:53 AM52 °FClear.5 mph97%30.03 "Hg7 mi
4:53 AM53 °FFog.6 mph93%30.02 "Hg2 mi
4:00 AM54 °FFog.7 mph97%30.13 "Hg0 mi
2:53 AM57 °FFog.8 mph93%30.03 "Hg4 mi
1:53 AM59 °FClear.6 mph90%30.04 "Hg7 mi
Weather by CustomWeather, © 2014

See weather overviewHow to use our weather pages